TimeCDT,TemperatureF,Dew PointF,Humidity,Sea Level PressureIn,VisibilityMPH,Wind Direction,Wind SpeedMPH,Gust SpeedMPH,PrecipitationIn,Events,Conditions,WindDirDegrees,DateUTC
12:15 AM,44.6,44.6,100,29.70,5.0,ESE,8.1,-,N/A,,Overcast,110,2013-03-18 05:15:00
12:35 AM,44.6,44.6,100,29.69,5.0,ESE,5.8,-,N/A,,Overcast,120,2013-03-18 05:35:00
12:55 AM,44.6,44.6,100,29.68,5.0,ESE,5.8,-,N/A,,Overcast,120,2013-03-18 05:55:00
1:15 AM,44.6,44.6,100,29.67,5.0,ESE,4.6,-,N/A,,Overcast,110,2013-03-18 06:15:00
1:35 AM,44.6,44.6,100,29.67,5.0,NE,8.1,-,N/A,,Overcast,50,2013-03-18 06:35:00
1:55 AM,44.6,44.6,100,29.66,5.0,East,4.6,-,N/A,,Overcast,90,2013-03-18 06:55:00
2:15 AM,44.6,44.6,100,29.70,5.0,NW,17.3,29.9,N/A,,Overcast,310,2013-03-18 07:15:00
2:35 AM,44.6,44.6,100,29.71,5.0,NNE,10.4,-,0.08,,Overcast,20,2013-03-18 07:35:00
2:55 AM,44.6,44.6,100,29.69,5.0,NE,11.5,-,0.08,,Mostly Cloudy,40,2013-03-18 07:55:00
3:15 AM,44.6,44.6,100,29.68,5.0,NE,9.2,-,N/A,,Overcast,40,2013-03-18 08:15:00
3:35 AM,42.8,42.8,100,29.72,8.0,North,19.6,-,N/A,,Overcast,350,2013-03-18 08:35:00
3:55 AM,41.0,41.0,100,29.71,2.0,NNE,16.1,23.0,0.15,,Overcast,20,2013-03-18 08:55:00
4:15 AM,39.2,39.2,100,29.70,2.0,NE,10.4,-,0.12,,Overcast,50,2013-03-18 09:15:00
4:35 AM,39.2,39.2,100,29.73,10.0,North,13.8,18.4,0.15,,Unknown,350,2013-03-18 09:35:00
4:55 AM,39.2,39.2,100,29.70,10.0,NE,8.1,-,0.15,,Overcast,50,2013-03-18 09:55:00
5:15 AM,39.2,39.2,100,29.70,8.0,NE,5.8,18.4,N/A,,Overcast,40,2013-03-18 10:15:00
5:35 AM,39.2,39.2,100,29.72,3.0,ESE,4.6,-,0.09,,Unknown,120,2013-03-18 10:35:00
5:55 AM,41.0,41.0,100,29.68,2.0,ENE,10.4,-,0.28,,Unknown,60,2013-03-18 10:55:00
6:15 AM,41.0,41.0,100,29.68,5.0,ESE,3.5,-,0.02,,Unknown,120,2013-03-18 11:15:00
6:35 AM,42.8,42.8,100,29.67,10.0,Calm,Calm,-,0.02,,Overcast,0,2013-03-18 11:35:00
6:55 AM,44.6,44.6,100,29.67,3.0,SE,4.6,-,0.05,,Overcast,140,2013-03-18 11:55:00
7:15 AM,44.6,44.6,100,29.69,4.0,South,3.5,-,N/A,,Overcast,180,2013-03-18 12:15:00
7:35 AM,44.6,44.6,100,29.69,5.0,South,8.1,-,0.01,,Overcast,170,2013-03-18 12:35:00
7:55 AM,46.4,46.4,100,29.71,5.0,SSW,5.8,-,0.02,,Overcast,200,2013-03-18 12:55:00
8:15 AM,46.4,46.4,100,29.70,5.0,SSW,8.1,-,N/A,,Overcast,200,2013-03-18 13:15:00
8:35 AM,46.4,46.4,100,29.72,6.0,SW,9.2,-,N/A,,Overcast,230,2013-03-18 13:35:00
8:55 AM,48.2,48.2,100,29.73,5.0,West,10.4,-,N/A,,Overcast,260,2013-03-18 13:55:00
9:15 AM,48.2,48.2,100,29.73,3.0,West,9.2,-,N/A,,Overcast,280,2013-03-18 14:15:00
9:35 AM,46.4,46.4,100,29.74,3.0,WSW,9.2,-,N/A,,Overcast,240,2013-03-18 14:35:00
9:55 AM,48.2,48.2,100,29.76,3.0,West,9.2,-,N/A,,Overcast,270,2013-03-18 14:55:00
10:35 AM,48.2,48.2,100,29.76,5.0,WNW,10.4,-,N/A,,Overcast,290,2013-03-18 15:35:00
10:55 AM,48.2,48.2,100,29.77,8.0,WNW,16.1,-,N/A,,Mostly Cloudy,290,2013-03-18 15:55:00
11:15 AM,48.2,48.2,100,29.78,9.0,WNW,15.0,-,N/A,,Overcast,300,2013-03-18 16:15:00
11:35 AM,50.0,48.2,94,29.77,10.0,West,10.4,-,N/A,,Overcast,270,2013-03-18 16:35:00
11:55 AM,50.0,48.2,94,29.77,10.0,WSW,10.4,-,N/A,,Overcast,250,2013-03-18 16:55:00
12:15 PM,51.8,48.2,88,29.78,10.0,WNW,12.7,17.3,N/A,,Overcast,290,2013-03-18 17:15:00
12:35 PM,50.0,46.4,87,29.79,10.0,WNW,12.7,-,N/A,,Overcast,290,2013-03-18 17:35:00
12:55 PM,50.0,46.4,87,29.78,10.0,WNW,10.4,18.4,N/A,,Overcast,290,2013-03-18 17:55:00
1:15 PM,50.0,46.4,87,29.77,10.0,WNW,10.4,-,N/A,,Overcast,300,2013-03-18 18:15:00
1:35 PM,48.2,44.6,87,29.77,10.0,WNW,8.1,-,N/A,,Overcast,300,2013-03-18 18:35:00
1:55 PM,48.2,46.4,93,29.76,10.0,West,9.2,-,N/A,,Overcast,260,2013-03-18 18:55:00
2:15 PM,48.2,44.6,87,29.74,10.0,West,6.9,-,N/A,,Overcast,270,2013-03-18 19:15:00
2:35 PM,48.2,44.6,87,29.75,10.0,WNW,8.1,-,N/A,,Overcast,290,2013-03-18 19:35:00
2:55 PM,48.2,44.6,87,29.77,10.0,WNW,10.4,-,N/A,,Overcast,300,2013-03-18 19:55:00
3:15 PM,48.2,44.6,87,29.78,10.0,NW,12.7,-,N/A,,Overcast,310,2013-03-18 20:15:00
3:35 PM,48.2,44.6,87,29.78,10.0,NW,12.7,18.4,N/A,,Overcast,310,2013-03-18 20:35:00
3:55 PM,48.2,44.6,87,29.80,10.0,NW,12.7,-,N/A,,Overcast,310,2013-03-18 20:55:00
4:15 PM,48.2,44.6,87,29.81,10.0,WNW,13.8,17.3,N/A,,Overcast,290,2013-03-18 21:15:00
4:35 PM,48.2,42.8,82,29.81,10.0,NW,11.5,20.7,N/A,,Overcast,320,2013-03-18 21:35:00
4:55 PM,48.2,42.8,82,29.82,10.0,NNW,9.2,-,N/A,,Overcast,330,2013-03-18 21:55:00
5:15 PM,48.2,42.8,82,29.83,10.0,NW,9.2,-,N/A,,Overcast,320,2013-03-18 22:15:00
5:35 PM,48.2,42.8,82,29.84,10.0,NNW,8.1,16.1,N/A,,Overcast,330,2013-03-18 22:35:00
5:55 PM,48.2,41.0,76,29.85,10.0,NNW,5.8,-,N/A,,Overcast,330,2013-03-18 22:55:00
6:15 PM,48.2,41.0,76,29.86,10.0,NNW,6.9,-,N/A,,Scattered Clouds,330,2013-03-18 23:15:00
6:35 PM,48.2,41.0,76,29.87,10.0,NNW,6.9,-,N/A,,Scattered Clouds,340,2013-03-18 23:35:00
6:55 PM,46.4,39.2,76,29.88,10.0,NW,6.9,-,N/A,,Mostly Cloudy,320,2013-03-18 23:55:00
7:15 PM,44.6,39.2,81,29.89,10.0,NW,5.8,-,N/A,,Scattered Clouds,310,2013-03-19 00:15:00
7:35 PM,44.6,39.2,81,29.90,10.0,NW,5.8,-,N/A,,Clear,310,2013-03-19 00:35:00
7:55 PM,42.8,37.4,81,29.91,10.0,NW,4.6,-,N/A,,Clear,320,2013-03-19 00:55:00
8:15 PM,42.8,37.4,81,29.92,10.0,NW,4.6,-,N/A,,Clear,320,2013-03-19 01:15:00
8:35 PM,41.0,37.4,87,29.92,10.0,NW,4.6,-,N/A,,Clear,320,2013-03-19 01:35:00
8:55 PM,39.2,35.6,87,29.94,10.0,WNW,3.5,-,N/A,,Clear,290,2013-03-19 01:55:00
9:15 PM,39.2,37.4,93,29.94,10.0,WNW,3.5,-,N/A,,Clear,300,2013-03-19 02:15:00
9:35 PM,39.2,37.4,93,29.95,10.0,WNW,3.5,-,N/A,,Clear,290,2013-03-19 02:35:00
9:55 PM,39.2,37.4,93,29.95,10.0,WNW,3.5,-,N/A,,Clear,290,2013-03-19 02:55:00
10:15 PM,39.2,37.4,93,29.96,10.0,West,4.6,-,N/A,,Clear,280,2013-03-19 03:15:00
10:55 PM,39.2,37.4,93,29.98,10.0,West,4.6,-,N/A,,Clear,260,2013-03-19 03:55:00
11:15 PM,39.2,37.4,93,29.98,10.0,WSW,5.8,-,N/A,,Clear,250,2013-03-19 04:15:00
11:35 PM,37.4,35.6,93,29.99,10.0,WSW,5.8,-,N/A,,Clear,240,2013-03-19 04:35:00
11:55 PM,37.4,35.6,93,30.00,10.0,SW,5.8,-,N/A,,Clear,230,2013-03-19 04:55:00